KB1JDX Weather Reports


time (UTC)temp
F
wind
direction
speed
knots
gust
knots
rain 1hr
in
rain 24hr
in
rain mn
in
humidity
%
barometer
mb
20260902023204 61 167 0.0 0.0 0.00 0.00 0.00 100 1018.8
20260902023101 61 167 0.0 0.0 0.00 0.00 0.00 100 1018.7
20260902021204 61 167 0.0 0.0 0.00 0.00 0.00 100 1018.5
20260902015204 61 167 0.0 0.0 0.00 0.00 0.00 100 1018.5
20260902015101 61 167 0.0 0.0 0.00 0.00 0.00 100 1018.4
20260902013604 61 167 0.0 0.0 0.00 0.00 0.00 100 1018.5
20260902013101 61 167 0.0 0.0 0.00 0.00 0.00 100 1018.5
20260902012805 61 167 0.0 0.0 0.00 0.00 0.00 100 1018.5
20260902012404 61 167 0.0 0.0 0.00 0.00 0.00 100 1018.5
20260902012205 61 167 0.0 0.0 0.00 0.00 0.00 100 1018.5
20260902012101 61 167 0.0 0.0 0.00 0.00 0.00 100 1018.5
20260901153219 66 341 0.0 6.1 0.00 0.00 0.00 100 1016.6
20260901153114 66 59 0.0 6.1 0.00 0.00 0.00 100 1016.6
20260901151219 67 148 0.0 6.1 0.00 0.00 0.00 100 1016.8
20260901145220 67 194 0.0 0.0 0.00 0.00 0.00 100 1016.9
20260901143219 67 319 0.0 0.0 0.00 0.00 0.00 100 1016.6
20260901143114 67 319 0.0 0.0 0.00 0.00 0.00 100 1016.6
20260901141219 67 323 0.0 0.0 0.00 0.00 0.00 100 1016.9
20260901135219 67 327 0.0 0.0 0.00 0.00 0.00 100 1016.7
20260901133220 67 327 0.0 0.0 0.00 0.00 0.00 100 1016.7
20260901133114 67 327 0.0 0.0 0.00 0.00 0.00 100 1016.7
20260901131221 67 327 0.0 0.0 0.00 0.00 0.00 100 1016.7
20260901123219 67 339 0.0 0.0 0.00 0.00 0.00 100 1016.8
20260901123114 67 339 0.0 0.0 0.00 0.00 0.00 100 1016.9
20260901121220 67 339 0.0 0.0 0.00 0.00 0.00 100 1016.9
20260901113219 66 339 0.0 0.0 0.00 0.00 0.00 100 1016.8
20260901113114 66 339 0.0 0.0 0.00 0.00 0.00 100 1016.7
20260901105219 66 339 0.0 0.0 0.00 0.00 0.00 100 1016.6
20260901103219 66 217 0.0 0.0 0.00 0.00 0.00 100 1016.4
20260901103114 66 217 0.0 0.0 0.00 0.00 0.00 100 1016.5
20260901101219 66 217 0.0 0.0 0.00 0.00 0.00 100 1016.2
20260901095219 66 217 0.0 0.0 0.00 0.00 0.00 100 1016.4
20260901093219 66 217 0.0 0.0 0.00 0.00 0.00 100 1016.6
20260901093114 66 217 0.0 0.0 0.00 0.00 0.00 100 1016.5
20260901091219 66 217 0.0 0.0 0.00 0.00 0.00 100 1016.6
20260901085219 66 217 0.0 0.0 0.00 0.00 0.00 100 1016.6
20260901083219 66 217 0.0 0.0 0.00 0.00 0.00 100 1016.6
20260901083114 66 217 0.0 0.0 0.00 0.00 0.00 100 1016.7
20260901081220 66 217 0.0 0.0 0.00 0.00 0.00 100 1017.0
20260901073219 66 217 0.0 0.0 0.00 0.00 0.00 100 1017.2
20260901073114 66 217 0.0 0.0 0.00 0.00 0.00 100 1017.2
20260901071219 66 217 0.0 0.0 0.00 0.00 0.00 100 1017.4
20260901065219 66 217 0.0 0.0 0.00 0.00 0.00 100 1017.2
20260901063219 66 217 0.0 0.0 0.00 0.00 0.00 100 1017.1
20260901063114 66 217 0.0 0.0 0.00 0.00 0.00 100 1017.1
20260901061219 66 217 0.0 0.0 0.00 0.00 0.00 100 1017.6
20260901055219 66 217 0.0 0.0 0.00 0.00 0.00 100 1017.7
20260901053114 66 217 0.0 0.0 0.00 0.00 0.00 100 1017.8
20260901051220 66 217 0.0 0.0 0.00 0.00 0.00 100 1017.7
20260901045219 66 217 0.0 0.0 0.00 0.00 0.00 100 1018.2
20260901043219 67 217 0.0 0.0 0.00 0.00 0.00 100 1018.1
20260901043114 67 217 0.0 0.0 0.00 0.00 0.00 100 1018.2
20260901041219 67 217 0.0 0.0 0.00 0.00 0.00 100 1018.1
20260901035219 67 217 0.0 0.0 0.00 0.00 0.00 100 1018.2
20260901033219 67 217 0.0 0.0 0.00 0.00 0.00 100 1018.5
20260901033114 67 217 0.0 0.0 0.00 0.00 0.00 100 1018.5
20260901031219 67 217 0.0 0.0 0.00 0.00 0.00 100 1018.5
20260901025220 67 217 0.0 0.0 0.00 0.00 0.00 100 1018.2